Regional Weather Roundup
Issued by NWS

Home | Current Version | Previous Version | Text Only | Print | Product List | Glossary On
Versions: 1 2 3 4 5 6 7 8 9 10 11 12 13 14 15 16 17 18 19 20 21 22 23 24 25 26 27 28 29 30 31 32 33 34 35 36 37 38 39 40 41 42 43 44 45 46 47 48 49 50
998
ASUS43 KTOP 101308
RWRKS

WEATHER ROUNDUP FOR KANSAS
NATIONAL WEATHER SERVICE GOODLAND KS
700 AM CST WED FEB 10 2016

NOTE:  "FAIR" INDICATES FEW OR NO CLOUDS BELOW 12,000 FEET WITH NO
SIGNIFICANT WEATHER AND/OR OBSTRUCTIONS TO VISIBILITY.

KSZ001>006-013>018-027>032-041>047-101400-
NORTHWEST KANSAS

CITY           SKY/WX    TMP DP  RH WIND       PRES   REMARKS
GOODLAND       CLOUDY    35  20  54 W12       30.07F WCI  27
HAYS           CLEAR     30  18  59 W6        30.05F
HILL CITY      CLEAR     34  25  69 W9        30.03F
RUSSELL        CLEAR     28  25  88 SW12      30.03F WCI  18
$$

KSZ061>065-074>080-084>089-101400-
SOUTHWEST KANSAS

CITY           SKY/WX    TMP DP  RH WIND       PRES   REMARKS
DODGE CITY     CLEAR     35  24  64 W17       30.10F WCI  25
ELKHART          N/A     36  19  50 W10         N/A  WCI  28
GARDEN CITY    CLEAR     28  23  81 W9        30.11S
GREAT BEND     CLEAR     28  18  64 SW8       30.07F
LIBERAL        CLEAR     37  25  60 W13       30.14S WCI  29
PRATT          CLEAR     24  19  83 SW8       30.10S
$$

KSZ066>073-081>083-090>101-101400-
SOUTHEAST KANSAS

CITY           SKY/WX    TMP DP  RH WIND       PRES   REMARKS
CHANUTE        MOCLDY    21  14  74 S8        30.22F
COFFEYVILLE    CLEAR     21  14  74 SE5       30.26S
HUTCHINSON     CLEAR     27  19  72 S10       30.12S WCI  17
MEDICINE LODGE   N/A     23  19  85 S6        30.13F
NEWTON         CLEAR     21  10  63 S9        30.13F
PARSONS        CLEAR     22  14  71 CALM      30.24F
WICHITA INTL   CLEAR     25  16  68 S12       30.14F WCI  14
WICHITA JABRA  CLEAR     23  15  71 S9        30.15S
WICHITA MCCONL CLEAR     25  14  62 SE13      30.15F WCI  14
WINFIELD       CLEAR     25  14  63 S10       30.19F WCI  15
$$

KSZ007>012-019>026-033>040-048>060-102>105-101400-
NORTHEAST KANSAS

CITY           SKY/WX    TMP DP  RH WIND       PRES   REMARKS
CONCORDIA      CLEAR     25  18  74 SW16G26   30.01F WCI  12
EMPORIA        CLEAR     24  11  57 S15       30.13F WCI  11
LAWRENCE       CLOUDY    24  17  74 S6        30.15F
MANHATTAN      CLEAR     27  13  55 S9        30.08S
MARYSVILLE     CLEAR     27  16  63 S12       30.03F WCI  16
OLATHE IND     CLOUDY    24  14  65 S8        30.15F
OLATHE EXE     CLOUDY    23  13  65 S6        30.15F
SALINA         CLEAR     28  19  69 S13       30.09F WCI  17
TOPEKA BILLARD PTCLDY    26  13  57 S5        30.15F
TOPEKA FORBES  CLEAR     24  14  65 SE6       30.13F
$$




USA.gov is the U.S. government's official web portal to all federal, state and local government web resources and services.